www.pogodaiklimat.ru

Погода и климат >> Архив погоды >> Россия >> Эвенкия >> Тутончаны


ПОГОДА в Тутончанах

  • Прогноз погоды в Тутончанах
  • Монитор погоды в Тутончанах
  • Климат города

АРХИВ ПОГОДЫ в Тутончанах

Время (UTC), дата Ветер
(напр.,м/с)
 
Видим.   Явления Облачность Т
(С)
Тd
(С)
f
(%)
Тe
(С)
Тes
(С)
Комфортность P
(гПа)
Po
(гПа)
Тmin
(С)
Tmax
(С)
R
(мм)
R24
(мм)
S
(см)
12 15.10 штиль 0 н/о 6/6 1000 м
[Sc]
-1.3 -4.6 78 -2 -2 1024.8 1011.2 +2.7
18 15.10 З 1 н/о 6/0
[Ci fib]
-2.3 -3.8 89 -5 -5 1024.4 1010.8
00 16.10 З 1 н/о 1/1 1000 м
[Sc]
-10.4 -11.0 95 -13 -13 1025.4 1011.3 -10.4
06 16.10 В 1 50 км 3/1 1000 м
[Sc Ci fib]
+0.4 -3.6 74 -1 0 1024.8 1011.3
12 16.10 СВ 1 н/о 9/9 1000 м
[Sc]
-0.7 -5.3 71 -2 -2 1022.7 1009.1 +2.8
18 16.10 штиль 0 н/о 3/3 1000 м
[Sc]
-5.4 -7.2 87 -6 -6 1020.9 1007.1
00 17.10 В 4 н/о 8/8 1000 м
[Sc]
-2.1 -5.3 79 -8 -8 1017.7 1004.1 -5.4
06 17.10 В 3 50 км 8/3 1000 м
[Sc Ci fib]
+1.5 -6.1 57 -2 -2 1013.0 999.6
12 17.10 В 2 н/о 9/9 1000 м
[Sc]
+0.9 -5.9 60 -2 -2 1011.5 998.1 +2.4
18 17.10 ЮВ 2 н/о 6/6 1000 м
[Sc]
-0.1 -5.8 65 -3 -3 1012.4 999.0
00 18.10 Ю 1 н/о 6/6 1000 м
[Sc]
-0.8 -6.5 65 -2 -2 1013.5 1000.1 -0.9
06 18.10 СВ 1 50 км 9/9 1000 м
[Sc]
+0.5 -4.3 70 -1 -1 1013.5 1000.1
12 18.10 В 1 н/о 10/10 1000 м
[Sc]
+1.2 -3.3 72 -0 -0 1013.1 999.7 +2.3
18 18.10 ЮВ 2 н/о слабый снег 10/10 1000 м
[Sc]
+0.4 -4.4 70 -3 -3 1014.1 1000.7
00 19.10 В 1 н/о {снег} 10/10 1000 м
[Sc]
-0.7 -3.2 83 -3 -3 1016.6 1001.2 -0.9 0.0
06 19.10 В 2 4000 м слабый ливневой снег 10/10 300 м
[Cb cap]
+0.1 -0.5 96 -4 -4 1014.6 1001.2
12 19.10 СВ 1 н/о слабый снег {ливн. осадки} 10/10 1000 м
[Sc]
+0.5 -0.1 96 -2 -2 1014.7 1001.3 +0.7 0.8
18 19.10 В 1 н/о слабый снег 10/10 1000 м
[Sc]
+0.1 -0.5 96 -2 -2 1014.7 1001.3
00 20.10 СВ 1 н/о слабый снег 10/10 1000 м
[Sc]
0.0 -0.3 98 -2 -2 1014.4 1001.0 -0.1 1 3
06 20.10 СВ 1 10 км слабый ливневой снег 10/10 600 м
[Cb cap]
+0.6 0.0 96 -2 -2 1014.4 1001.0
12 20.10 Ю 2 н/о {ливн. осадки} 8/8 600 м
[Cb cap]
+1.6 -1.5 80 -2 -2 1016.0 1002.6 +2.2 1
18 20.10 СВ 2 н/о 8/8 600 м
[Cb cap]
-0.1 -1.8 88 -4 -4 1017.4 1003.8
00 21.10 штиль 0 н/о в посл. час ливневой снег 8/8 600 м
[Cb cap]
-2.2 -2.8 96 -4 -4 1017.7 1004.1 -2.8 0.2 3
06 21.10 В 3 50 км 8/8 600 м
[Cb cap]
+0.9 -0.8 88 -4 -3 1016.7 1003.3
12 21.10 В 2 н/о 8/8 600 м
[Cb cap]
+1.0 -0.7 88 -3 -3 1015.3 1001.9 +1.6
15 21.10 В 2 н/о 8/8 600 м
[Cb cap]
+1.0 -0.7 88 -3 -3 1015.3 1001.9 +1.6
18 21.10 В 2 н/о 3/3 1000 м
[Sc]
-0.8 -2.4 89 -5 -5 1012.5 999.1
00 22.10 В 1 н/о 9/9 1000 м
[Sc]
-3.5 -4.0 96 -6 -6 1010.5 997.0 -7.5 3

 

Местоположение метеостанции Тутончаны (Эвенкия, Россия): широта 64.20 долгота 93.78 высота над уровнем моря 106 м.

В архиве по умолчанию представлена погода в Тутончанах за последнюю неделю. Архивные данные за месяц целиком и за предыдущие месяцы, начиная с января 2011 года, Вы можете получить, выбрав интересующий диапазон дат из раскрывающегося списка и нажав кнопку "Ввод!".


*Определитесь, кто Вы:
робот инопланетянин человек

Внимание! Время в таблицах - всемирное. Для получения местного времени необходимо прибавить поправку, которая в Тутончанах равна 7 ч.

Смотрите также архив погоды в соседних городах и на ближайших метеорологических станциях:

Погода в Кузьмовке (Эвенкия, Россия) (225 км)
Погода в Большом Пороге (Эвенкия, Россия) (237 км)
Погода в Тембенчи (Эвенкия, Россия) (258 км)
Погода в Агате (Эвенкия, Россия) (298 км)
Погода в Верещагино (Красноярский край, Россия) (305 км)
Погода в Бахте (Красноярский край, Россия) (306 км)
Погода в Верхнеимбатске (Красноярский край, Россия) (310 км)
Погода в Байките (Эвенкия, Россия) (310 км)
Погода в Туре (Эвенкия, Россия) (320 км)
Погода в Туруханске (Красноярский край, Россия) (326 км)

Пояснения к столбцам:

Ветер - указаны скорость ветра в м/с - средняя за 10 мин, порывы в срок и между сроками (в фигурных скобках) и направление, откуда дует ветер: С - северный, СВ - северо-восточный, В - восточный, ЮВ - юго-восточный, Ю - южный, ЮЗ - юго-западный, З - западный, СЗ - северо-западный.
Видимость - горизонтальная дальность видимости в метрах или километрах. При видимости от 1 до 10 км при отсутствии осадков обычно наблюдается дымка, при ухудшении видимости до 1 км и менее - туман. В сухую погоду видимость может ухудшаться дымом, пылью или мглою.
Явления - указаны атмосферные явления, наблюдавшиеся в срок или в последний час перед сроком; фигурными скобками обозначены явления, наблюдавшиеся между сроками (за 1-3 часа до срока); квадратными скобками обозначены град или гололедные отложения с указанием их диаметра в мм.
Облачность - указаны через наклонную черту общая и нижняя облачность в баллах и высота нижней границы облаков в метрах; квадратными скобками обозначены формы облаков: Ci - перистые, Cs - перисто-слоистые, Cc - перисто-кучевые, Ac - высококучевые, As - высокослоистые, Sc - слоисто-кучевые, Ns - слоисто-дождевые, Cu - кучевые, Cb - кучево-дождевые. Подробнее классификацию облаков см. в Атласе облаков (PDF).
T - Температура воздуха - температура, измеренная на высоте 2 м над землей.
Td - Температура точки росы - температура, при понижении до которой содержащийся в воздухе водяной пар достигнет насыщения.
f - Относительная влажность воздуха - влажноcть воздуха, измеренная на высоте 2 м над землей.
Te - Эффективная температура - температура, которую ощущает одетый по сезону человек в тени. Характеристика душности погоды. При расчете учитывается влияние влажности воздуха и скорости ветра на теплоощущения человека.
Tes - Эффективная температура на солнце - температура, которую ощущает человек, с поправкой на солнечный нагрев. Характеристика знойности погоды. Зависит от высоты солнца над горизонтом, облачности и скорости ветра. Ночью, в пасмурную погоду, а также при ветре 12 м/с и более поправка равна нулю.
P - Атмосферное давление - приведенное к уровню моря атмосферное давление.
Po - Атмосферное давление - измеренное на уровне метеостанции атмосферное давление.
Tmin - Минимальная температура - минимум температуры воздуха на высоте 2 м над землей.
Tmax - Максимальная температура - максимум температуры воздуха на высоте 2 м над землей.
R - Количество осадков - Количество выпавших осадков за период времени, мм. При наведении курсора мыши на число - период времени, за который выпало указанное количество осадков.
R24 - Количество осадков - Количество выпавших осадков за 24 часа, мм.
S - Снежный покров - Высота снежного покрова, см. При наведении курсора мыши на число - состояние снежного покрова и степень покрытия местности в баллах.